UAE67M YMML-OMDB

Flight info

Callsign UAE67M
Flight time N/A
Altitude 28000
Route PEDNI1/34 PEDNI H345 AD A585 VEPOK/N0492F300 A585 ABTOD DCT 30S130E 28S127E DCT DALPA DCT KA DCT 16S110E/N0510F320 12S103E 09S097E 08S095E 06S091E/N0502F340 DCT KADAP DCT PIBOR DCT BIBGO L894 GOLEM/N0493F360 L894 KITAL P570 ITURA M762 VAXAS/N0464F240 M762 MIVEK P574 IMPED
Aircraft B77W/H-SDE1E2E3FGHIJ2J3J4J5M1RWXY/LB1D1

Departure

Time N/A
Airport Melbourne Airport (YMML)

Arrival

Time 2026-05-06 13:55
Airport Dubai International Airport (OMDB)
Time Latitude Longitude Altitude Speed Heading
2026-05-06 12:29 -16.88707 111.22647 32044 ft 460 kts 301°
2026-05-06 12:30 -16.73378 111.01299 32096 ft 472 kts 301°
2026-05-06 12:30 -16.57516 110.79288 32033 ft 476 kts 301°
2026-05-06 12:30 -16.41633 110.57311 31925 ft 471 kts 301°
2026-05-06 12:30 -16.26044 110.35802 31905 ft 462 kts 301°
2026-05-06 12:31 -16.10484 110.14386 32027 ft 467 kts 301°
2026-05-06 12:31 -15.95352 109.92263 32094 ft 467 kts 294°
2026-05-06 12:31 -15.82746 109.68359 32086 ft 479 kts 295°
2026-05-06 12:31 -15.69492 109.44397 31958 ft 476 kts 295°
2026-05-06 12:32 -15.43689 108.97652 31948 ft 461 kts 295°
2026-05-06 12:32 -15.30982 108.74744 32054 ft 469 kts 296°
2026-05-06 12:32 -15.17794 108.51049 32070 ft 480 kts 296°
2026-05-06 12:33 -15.04391 108.27056 31942 ft 479 kts 296°
2026-05-06 12:33 -14.91142 108.03403 31874 ft 470 kts 296°
2026-05-06 12:33 -14.64958 107.56848 32038 ft 474 kts 297°
2026-05-06 12:34 -14.51489 107.33013 32058 ft 486 kts 297°
2026-05-06 12:34 -14.37814 107.08897 31933 ft 485 kts 297°
2026-05-06 12:34 -14.11129 106.62026 31909 ft 472 kts 297°
2026-05-06 12:35 -13.97717 106.38568 32012 ft 480 kts 298°
2026-05-06 12:35 -13.83985 106.14623 32036 ft 492 kts 298°
2026-05-06 12:35 -13.70008 105.90327 31919 ft 492 kts 298°
2026-05-06 12:35 -13.56156 105.66317 31847 ft 484 kts 298°
2026-05-06 12:36 -13.28806 105.19087 31997 ft 485 kts 299°
2026-05-06 12:36 -13.14781 104.94971 32042 ft 497 kts 299°
2026-05-06 12:36 -13.00560 104.70593 31910 ft 496 kts 299°
2026-05-06 12:37 -12.72825 104.23225 31867 ft 481 kts 300°
2026-05-06 12:37 -12.58965 103.99646 31989 ft 486 kts 300°
2026-05-06 12:37 -12.44830 103.75666 32027 ft 498 kts 300°
2026-05-06 12:38 -12.30494 103.51404 31902 ft 496 kts 300°
2026-05-06 12:38 -12.16297 103.27443 31824 ft 486 kts 300°
2026-05-06 12:38 -11.90011 102.79643 31963 ft 487 kts 294°
2026-05-06 12:39 -11.78068 102.54873 32011 ft 498 kts 296°
2026-05-06 12:39 -11.65662 102.29516 31890 ft 497 kts 296°
2026-05-06 12:39 -11.41419 101.80048 31844 ft 481 kts 296°
2026-05-06 12:40 -11.29358 101.55533 31964 ft 487 kts 296°
2026-05-06 12:40 -11.17062 101.30603 32005 ft 498 kts 296°
2026-05-06 12:40 -11.04574 101.05356 31879 ft 498 kts 296°
2026-05-06 12:40 -10.92198 100.80391 31809 ft 488 kts 296°
2026-05-06 12:41 -10.67952 100.31661 31950 ft 491 kts 296°
2026-05-06 12:41 -10.55418 100.06557 31996 ft 503 kts 297°
2026-05-06 12:41 -10.42727 99.81207 31851 ft 502 kts 297°
2026-05-06 12:42 -10.17808 99.31601 31835 ft 487 kts 297°
2026-05-06 12:42 -10.05389 99.06965 31951 ft 494 kts 297°
2026-05-06 12:42 -9.92699 98.81842 31976 ft 504 kts 298°
2026-05-06 12:43 -9.79921 98.56620 31831 ft 500 kts 298°
2026-05-06 12:43 -9.67488 98.32113 31767 ft 489 kts 298°
2026-05-06 12:43 -9.42562 97.83152 31970 ft 497 kts 298°
2026-05-06 12:44 -9.16790 97.32734 31820 ft 503 kts 298°
2026-05-06 12:44 -9.04048 97.07885 31770 ft 492 kts 298°
2026-05-06 12:44 -8.91663 96.83282 31866 ft 492 kts 297°
2026-05-06 12:45 -8.79297 96.58336 31976 ft 501 kts 298°
2026-05-06 12:45 -8.66797 96.33259 31932 ft 509 kts 298°
2026-05-06 12:45 -8.41564 95.82761 31767 ft 495 kts 298°
2026-05-06 12:46 -8.29122 95.57938 31880 ft 498 kts 298°
2026-05-06 12:46 -8.16457 95.32723 31977 ft 510 kts 298°
2026-05-06 12:46 -8.03462 95.06882 32887 ft 518 kts 297°
2026-05-06 12:46 -7.90563 94.80941 33950 ft 519 kts 297°
2026-05-06 12:47 -7.77611 94.54704 33948 ft 524 kts 297°
2026-05-06 12:47 -7.64890 94.29022 33793 ft 511 kts 297°
2026-05-06 12:47 -7.52373 94.03797 33714 ft 494 kts 297°
2026-05-06 12:47 -7.40147 93.79203 33820 ft 490 kts 297°
2026-05-06 12:48 -7.27811 93.54448 33958 ft 500 kts 297°
2026-05-06 12:48 -7.02434 93.03618 33837 ft 508 kts 297°
2026-05-06 12:48 -6.89931 92.78592 33752 ft 496 kts 297°
2026-05-06 12:49 -6.77656 92.54121 33780 ft 483 kts 297°
2026-05-06 12:49 -6.53321 92.05680 33944 ft 493 kts 298°
2026-05-06 12:50 -6.28391 91.56192 33814 ft 496 kts 298°
2026-05-06 12:50 -6.15890 91.31431 33748 ft 485 kts 298°
2026-05-06 12:50 -6.03946 91.07803 33800 ft 478 kts 298°
2026-05-06 12:51 -5.77315 90.60753 33951 ft 496 kts 301°
2026-05-06 12:51 -5.49496 90.12624 33786 ft 496 kts 301°
2026-05-06 12:52 -5.22159 89.65473 33870 ft 486 kts 301°
2026-05-06 12:52 -4.94515 89.17907 33913 ft 498 kts 301°
2026-05-06 12:53 -4.67134 88.70901 33750 ft 477 kts 301°
2026-05-06 12:53 -4.40250 88.24806 33957 ft 494 kts 301°
2026-05-06 12:54 -4.12236 87.76863 33799 ft 490 kts 301°
2026-05-06 12:54 -3.98710 87.53747 33724 ft 473 kts 301°
2026-05-06 12:54 -3.85595 87.31356 33825 ft 469 kts 302°
2026-05-06 12:54 -3.72330 87.08729 33927 ft 477 kts 302°
2026-05-06 12:55 -3.58774 86.85620 33928 ft 488 kts 302°
2026-05-06 12:55 -3.31182 86.38656 33774 ft 485 kts 301°
2026-05-06 12:56 -3.04204 85.92769 33874 ft 482 kts 300°
2026-05-06 12:56 -2.76352 85.45438 33893 ft 500 kts 300°
2026-05-06 12:56 -2.62274 85.21541 33769 ft 496 kts 300°
2026-05-06 12:57 -2.48391 84.97989 33733 ft 494 kts 300°
2026-05-06 12:57 -2.34402 84.74281 33906 ft 501 kts 300°
2026-05-06 12:57 -2.20100 84.50045 33944 ft 508 kts 301°
2026-05-06 12:57 -2.05740 84.25729 33806 ft 504 kts 300°
2026-05-06 12:58 -1.91211 84.02192 33730 ft 496 kts 303°
2026-05-06 12:58 -1.61099 83.56018 33914 ft 506 kts 303°
2026-05-06 12:59 -1.30052 83.08177 33784 ft 508 kts 303°
2026-05-06 12:59 -0.99937 82.61818 33829 ft 497 kts 303°
2026-05-06 13:00 -0.69212 82.14488 33899 ft 514 kts 303°
2026-05-06 13:00 -0.53776 81.90742 33779 ft 510 kts 304°
2026-05-06 13:00 -0.38424 81.67130 33732 ft 502 kts 304°
2026-05-06 13:01 -0.08016 81.20345 33888 ft 507 kts 304°
2026-05-06 13:01 0.22954 80.72697 33807 ft 514 kts 304°
2026-05-06 13:02 0.53478 80.25723 33768 ft 503 kts 304°
2026-05-06 13:02 0.68877 80.02026 33883 ft 510 kts 304°
2026-05-06 13:02 0.84450 79.78055 33932 ft 521 kts 304°
2026-05-06 13:02 1.00340 79.53591 33821 ft 520 kts 304°
2026-05-06 13:03 1.15874 79.29667 33734 ft 510 kts 304°
2026-05-06 13:03 1.46499 78.82500 33887 ft 510 kts 304°
2026-05-06 13:03 1.62135 78.58400 33940 ft 522 kts 304°
2026-05-06 13:04 1.77785 78.34277 33825 ft 520 kts 303°
2026-05-06 13:04 1.93536 78.09982 33737 ft 508 kts 303°
2026-05-06 13:04 2.09456 77.87548 33748 ft 496 kts 309°
2026-05-06 13:05 2.44156 77.44007 33927 ft 512 kts 308°
2026-05-06 13:05 2.79589 76.99014 33749 ft 504 kts 309°
2026-05-06 13:05 2.96510 76.77550 33705 ft 490 kts 309°
2026-05-06 13:06 3.13404 76.56050 33816 ft 492 kts 309°
2026-05-06 13:06 3.30500 76.34317 33934 ft 504 kts 309°
2026-05-06 13:06 3.47989 76.12068 33866 ft 510 kts 309°
2026-05-06 13:06 3.65395 75.89890 33749 ft 504 kts 309°
2026-05-06 13:07 3.82495 75.68102 33730 ft 497 kts 309°
2026-05-06 13:07 3.99603 75.46281 33851 ft 502 kts 309°
2026-05-06 13:07 4.16956 75.24145 33930 ft 513 kts 309°
2026-05-06 13:08 4.52154 74.79158 33730 ft 506 kts 309°
2026-05-06 13:08 4.86752 74.34869 33862 ft 507 kts 309°
2026-05-06 13:08 5.04340 74.12315 33933 ft 521 kts 309°
2026-05-06 13:09 5.22094 73.89540 33819 ft 520 kts 309°
2026-05-06 13:09 5.39681 73.66949 33731 ft 509 kts 308°
2026-05-06 13:09 5.56919 73.44786 33744 ft 506 kts 308°
2026-05-06 13:09 5.74345 73.22358 33884 ft 516 kts 308°
2026-05-06 13:10 5.92279 72.99245 33900 ft 525 kts 308°
2026-05-06 13:10 6.10007 72.76367 33773 ft 518 kts 308°
2026-05-06 13:10 6.27452 72.53836 33731 ft 510 kts 308°
2026-05-06 13:10 6.45143 72.30949 35156 ft 518 kts 308°
2026-05-06 13:11 6.63056 72.07761 35935 ft 528 kts 308°
2026-05-06 13:11 6.98684 71.61527 35693 ft 509 kts 307°
2026-05-06 13:11 7.15770 71.39308 35675 ft 492 kts 307°
2026-05-06 13:12 7.32482 71.17544 35824 ft 494 kts 307°
2026-05-06 13:12 7.49366 70.95621 35937 ft 507 kts 311°
2026-05-06 13:12 7.71616 70.77627 35932 ft 515 kts 324°
2026-05-06 13:12 7.94047 70.59923 35794 ft 511 kts 322°
2026-05-06 13:13 8.16385 70.42242 35702 ft 498 kts 322°
2026-05-06 13:13 8.59370 70.08153 35889 ft 500 kts 322°
2026-05-06 13:13 8.81369 69.90665 35932 ft 511 kts 322°
2026-05-06 13:14 9.03887 69.72738 35827 ft 510 kts 322°
2026-05-06 13:14 9.47540 69.37898 35740 ft 492 kts 322°
2026-05-06 13:14 9.68947 69.20770 35856 ft 497 kts 322°
2026-05-06 13:15 9.90871 69.03199 35935 ft 508 kts 322°
2026-05-06 13:15 10.35313 68.67460 35746 ft 502 kts 322°
2026-05-06 13:16 10.78362 68.32715 35854 ft 496 kts 322°
2026-05-06 13:16 10.99917 68.15268 35941 ft 507 kts 322°
2026-05-06 13:16 11.22333 67.97088 35857 ft 509 kts 322°
2026-05-06 13:17 11.65480 67.61996 35736 ft 490 kts 322°
2026-05-06 13:17 11.86767 67.44629 35838 ft 492 kts 322°
2026-05-06 13:17 12.08331 67.27007 35939 ft 503 kts 322°
2026-05-06 13:18 12.52514 66.90774 35769 ft 501 kts 322°
2026-05-06 13:18 12.94894 66.55864 35832 ft 491 kts 322°
2026-05-06 13:19 13.38204 66.20026 35908 ft 508 kts 321°
2026-05-06 13:19 13.60124 66.01820 35792 ft 502 kts 321°
2026-05-06 13:19 13.81450 65.84067 35743 ft 490 kts 321°
2026-05-06 13:20 14.23638 65.48820 35929 ft 496 kts 321°
2026-05-06 13:20 14.67072 65.12346 35805 ft 499 kts 321°
2026-05-06 13:20 14.88353 64.94409 35743 ft 488 kts 321°
2026-05-06 13:21 15.09158 64.76824 35802 ft 484 kts 321°
2026-05-06 13:21 15.30080 64.59092 35922 ft 492 kts 321°
2026-05-06 13:21 15.51348 64.41021 35938 ft 502 kts 321°
2026-05-06 13:21 15.72980 64.22589 35819 ft 497 kts 320°
2026-05-06 13:22 15.93932 64.04686 35751 ft 486 kts 320°
2026-05-06 13:22 16.35524 63.68996 35911 ft 487 kts 320°
2026-05-06 13:22 16.56516 63.50904 35950 ft 499 kts 320°
2026-05-06 13:23 16.77886 63.32435 35843 ft 497 kts 320°
2026-05-06 13:23 16.98984 63.14141 35759 ft 486 kts 320°
2026-05-06 13:23 17.19089 62.95994 35771 ft 479 kts 318°
2026-05-06 13:23 17.39347 62.77520 35898 ft 485 kts 319°
2026-05-06 13:24 17.59745 62.58891 35954 ft 497 kts 319°
2026-05-06 13:24 17.80800 62.39595 35850 ft 497 kts 319°
2026-05-06 13:24 18.01469 62.20593 35764 ft 487 kts 319°
2026-05-06 13:25 18.41390 61.83714 35888 ft 484 kts 319°
2026-05-06 13:25 18.62123 61.64472 35956 ft 496 kts 319°
2026-05-06 13:25 18.82872 61.45142 35853 ft 497 kts 319°
2026-05-06 13:26 19.23089 61.07496 35755 ft 477 kts 318°
2026-05-06 13:26 19.42937 60.88822 35862 ft 480 kts 318°
2026-05-06 13:26 19.63248 60.69645 35948 ft 491 kts 318°
2026-05-06 13:27 20.03956 60.31018 35774 ft 486 kts 319°
2026-05-06 13:27 20.49431 60.01795 35872 ft 481 kts 328°
2026-05-06 13:28 20.96070 59.71983 35847 ft 492 kts 328°
2026-05-06 13:28 21.41863 59.42424 35743 ft 472 kts 327°
2026-05-06 13:28 21.64532 59.27710 35848 ft 476 kts 327°
2026-05-06 13:29 21.87401 59.12855 35928 ft 486 kts 327°
2026-05-06 13:29 22.33436 58.82758 35778 ft 477 kts 327°
2026-05-06 13:30 22.78051 58.53340 35875 ft 469 kts 326°
2026-05-06 13:30 23.00529 58.38446 35950 ft 480 kts 326°
2026-05-06 13:30 23.23143 58.23363 35854 ft 483 kts 326°
2026-05-06 13:31 23.32464 58.17121 35795 ft 473 kts 326°
2026-05-06 13:31 23.37883 58.13155 35799 ft 467 kts 317°
2026-05-06 13:32 23.42463 58.08180 35795 ft 464 kts 307°
2026-05-06 13:32 23.46222 58.02532 35804 ft 464 kts 303°
2026-05-06 13:33 23.49916 57.96756 35805 ft 466 kts 303°
2026-05-06 13:33 23.53661 57.90987 35812 ft 467 kts 303°
2026-05-06 13:34 23.57425 57.85220 35807 ft 467 kts 303°
2026-05-06 13:34 23.61226 57.79534 35806 ft 468 kts 306°
2026-05-06 13:35 23.65263 57.73972 35809 ft 467 kts 307°
2026-05-06 13:35 23.69294 57.68409 35805 ft 467 kts 306°
2026-05-06 13:36 23.73282 57.62823 35802 ft 466 kts 306°
2026-05-06 13:36 23.77260 57.57239 35801 ft 466 kts 306°
2026-05-06 13:37 23.81212 57.51697 35801 ft 465 kts 306°
2026-05-06 13:37 23.85180 57.46128 35800 ft 465 kts 306°
2026-05-06 13:38 23.89146 57.40557 35795 ft 464 kts 306°
2026-05-06 13:38 23.93105 57.34987 35800 ft 463 kts 306°
2026-05-06 13:39 24.02773 57.21360 35803 ft 462 kts 306°
2026-05-06 13:39 24.21503 56.94843 35765 ft 459 kts 305°
2026-05-06 13:39 24.36043 56.74086 32277 ft 427 kts 305°
2026-05-06 13:40 24.51491 56.53751 26841 ft 438 kts 313°
2026-05-06 13:40 24.68046 56.34705 22249 ft 414 kts 312°
2026-05-06 13:40 24.70030 56.32461 21353 ft 405 kts 316°
2026-05-06 13:40 24.71410 56.31088 20610 ft 404 kts 319°
2026-05-06 13:41 24.73544 56.29075 19507 ft 404 kts 320°
2026-05-06 13:41 24.75693 56.27081 18412 ft 404 kts 320°
2026-05-06 13:41 24.78543 56.24438 16814 ft 405 kts 320°
2026-05-06 13:41 24.79994 56.23087 16049 ft 403 kts 320°
2026-05-06 13:42 24.91496 56.12287 11930 ft 361 kts 318°
2026-05-06 13:42 25.00926 56.02770 10540 ft 330 kts 309°
2026-05-06 13:42 25.16099 55.83833 7834 ft 290 kts 308°
2026-05-06 13:42 25.18089 55.80488 7458 ft 275 kts 297°
2026-05-06 13:43 25.18697 55.79272 7487 ft 274 kts 298°
2026-05-06 13:43 25.19633 55.77440 7482 ft 274 kts 298°
2026-05-06 13:43 25.20588 55.75624 7484 ft 273 kts 299°
2026-05-06 13:43 25.21565 55.73827 7493 ft 274 kts 300°
2026-05-06 13:44 25.22883 55.71440 7496 ft 276 kts 300°
2026-05-06 13:44 25.23548 55.70243 7465 ft 275 kts 300°
2026-05-06 13:44 25.24549 55.68452 7459 ft 274 kts 300°
2026-05-06 13:44 25.25913 55.66016 7109 ft 281 kts 300°
2026-05-06 13:45 25.26588 55.64803 6940 ft 279 kts 300°
2026-05-06 13:45 25.28586 55.61178 6380 ft 270 kts 295°
2026-05-06 13:45 25.28949 55.58582 6029 ft 257 kts 255°
2026-05-06 13:46 25.28533 55.57356 5924 ft 251 kts 238°
2026-05-06 13:46 25.27501 55.55847 5742 ft 250 kts 220°
2026-05-06 13:46 25.25989 55.54922 5569 ft 253 kts 190°
2026-05-06 13:46 25.24256 55.55012 5411 ft 252 kts 161°
2026-05-06 13:47 25.22763 55.56008 5247 ft 253 kts 136°
2026-05-06 13:47 25.21733 55.57573 5072 ft 252 kts 121°
2026-05-06 13:47 25.20527 55.59783 4856 ft 256 kts 122°
2026-05-06 13:47 25.19901 55.60919 4731 ft 258 kts 121°
2026-05-06 13:48 25.18966 55.62619 4565 ft 260 kts 121°
2026-05-06 13:48 25.18033 55.64305 4360 ft 254 kts 122°
2026-05-06 13:48 25.16894 55.65636 4114 ft 234 kts 152°
2026-05-06 13:48 25.15401 55.66079 4078 ft 216 kts 179°
2026-05-06 13:49 25.13955 55.65919 3930 ft 205 kts 194°
2026-05-06 13:49 25.12669 55.65284 3769 ft 204 kts 210°
2026-05-06 13:49 25.11563 55.64331 3669 ft 200 kts 237°
2026-05-06 13:49 25.11184 55.62873 3710 ft 203 kts 275°
2026-05-06 13:50 25.11604 55.61394 3729 ft 204 kts 295°
2026-05-06 13:50 25.12264 55.60004 3718 ft 204 kts 300°
2026-05-06 13:50 25.12981 55.58661 3703 ft 202 kts 301°
2026-05-06 13:50 25.13717 55.57326 3516 ft 206 kts 301°
2026-05-06 13:51 25.14452 55.55999 3268 ft 204 kts 301°
2026-05-06 13:51 25.15185 55.54678 3011 ft 198 kts 301°
2026-05-06 13:51 25.15889 55.53406 2767 ft 193 kts 301°
2026-05-06 13:51 25.16593 55.52135 2546 ft 192 kts 301°
2026-05-06 13:52 25.17264 55.50920 2271 ft 177 kts 302°
2026-05-06 13:52 25.17862 55.49840 2075 ft 154 kts 301°
2026-05-06 13:52 25.18396 55.48872 1879 ft 145 kts 303°
2026-05-06 13:52 25.18928 55.47915 1725 ft 148 kts 303°
2026-05-06 13:53 25.19474 55.46928 1538 ft 152 kts 304°
2026-05-06 13:53 25.20020 55.45941 1344 ft 151 kts 304°
2026-05-06 13:53 25.20551 55.44976 1131 ft 145 kts 304°
2026-05-06 13:53 25.21072 55.44036 964 ft 143 kts 305°
2026-05-06 13:54 25.21595 55.43096 829 ft 146 kts 306°
2026-05-06 13:54 25.22126 55.42130 668 ft 147 kts 305°
2026-05-06 13:54 25.22660 55.41160 492 ft 150 kts 304°
2026-05-06 13:54 25.23193 55.40194 235 ft 148 kts 303°
2026-05-06 13:55 25.23735 55.39229 38 ft 143 kts 302°
2026-05-06 13:55 25.24197 55.38399 27 ft 102 kts 302°
2026-05-06 13:55 25.24446 55.37955 27 ft 39 kts 302°
2026-05-06 13:55 25.24609 55.37655 27 ft 46 kts 300°
2026-05-06 13:56 25.24747 55.37386 27 ft 30 kts 292°
2026-05-06 13:56 25.24780 55.37218 27 ft 21 kts 277°
2026-05-06 13:56 25.24790 55.37058 27 ft 20 kts 272°
2026-05-06 13:56 25.24773 55.36958 27 ft 13 kts 227°
2026-05-06 13:57 25.24698 55.36906 27 ft 13 kts 211°
2026-05-06 13:57 25.24622 55.36855 27 ft 13 kts 211°
2026-05-06 13:57 25.24548 55.36805 27 ft 12 kts 211°
2026-05-06 13:57 25.24498 55.36770 27 ft 6 kts 221°
2026-05-06 13:58 25.24502 55.36724 27 ft 7 kts 307°
2026-05-06 13:58 25.24530 55.36686 27 ft 6 kts 310°
2026-05-06 13:58 25.24550 55.36661 27 ft 3 kts 311°
2026-05-06 13:58 25.24560 55.36648 27 ft 2 kts 311°
2026-05-06 13:59 25.24569 55.36636 27 ft 2 kts 311°
2026-05-06 13:59 25.24580 55.36623 27 ft 0 kts 312°
2026-05-06 13:59 25.24584 55.36619 27 ft 0 kts 312°